Regional Weather Roundup
Issued by NWS

Home | Current Version | Previous Version | Text Only | Print | Product List | Glossary Off
Versions: 1 2 3 4 5 6 7 8 9 10 11 12 13 14 15 16 17 18 19 20 21 22 23 24 25 26 27 28 29 30 31 32 33 34 35 36 37 38 39 40 41 42 43 44 45 46 47 48 49 50

000
ASUS43 KBIS 231310
RWRND

NORTH DAKOTA REGIONAL WEATHER ROUNDUP
NATIONAL WEATHER SERVICE BISMARCK ND
800 AM CDT SAT JUL 23 2016

NOTE: "FAIR" INDICATES FEW OR NO CLOUDS BELOW 12,000 FEET WITH NO
SIGNIFICANT WEATHER AND/OR OBSTRUCTIONS TO VISIBILITY.


NDZ001>003-009>011-017-231400-
NORTHWEST NORTH DAKOTA

CITY           SKY/WX    TMP DP  RH WIND       PRES   REMARKS
WILLISTON      CLOUDY    67  63  87 S5        29.83R
MINOT          TSTM      67  64  90 SE10      29.82F
MINOT AFB      CLOUDY    65  64  95 S13       29.79S
$$

NDZ018>021-031>035-040>046-231400-
SOUTHWEST NORTH DAKOTA

CITY           SKY/WX    TMP DP  RH WIND       PRES   REMARKS
BISMARCK       TSTM      66  65  96 VRB5      29.79R
DICKINSON      MOSUNNY   65  61  87 E6        29.80F
GARRISON         N/A     65  64  97 E16       29.80F
HETTINGER ARPT CLOUDY    68  61  78 SE5       29.82R
$$

NDZ004>008-012>016-024-026-027-054-231400-
NORTHEAST NORTH DAKOTA

CITY           SKY/WX    TMP DP  RH WIND       PRES   REMARKS
GRAND FORKS    CLOUDY    69  65  86 CALM      29.85R
GRND FRKS AFB  CLOUDY    70  64  83 E3        29.84S
DEVILS LAKE    CLOUDY    68  65  90 W13       29.90R
$$

NDZ022-023-025-028>030-036>039-047>053-231400-
SOUTHEAST NORTH DAKOTA

CITY           SKY/WX    TMP DP  RH WIND       PRES   REMARKS
FARGO          CLOUDY    74  62  66 SE12      29.81F
JAMESTOWN      MOSUNNY   72  67  84 E6        29.79F
$$





USA.gov is the U.S. government's official web portal to all federal, state and local government web resources and services.